NKS681 ENGM-ENBR

Flight info

Callsign NKS681
Flight time 0h 35m
Altitude 28000
Route ATLAP DCT AGEKU DCT PESUR
Aircraft A321/M-SDE3FGHIRWY/LB1

Departure

Time 2026-05-07 18:38
Airport Oslo-Gardermoen International Airport (ENGM)

Arrival

Time 2026-05-07 19:13
Airport Bergen Airport, Flesland (ENBR)
Time Latitude Longitude Altitude Speed Heading
2026-05-07 18:04 60.19575 11.09352 683 ft 0 kts 196°
2026-05-07 18:26 60.19593 11.09362 685 ft 4 kts 196°
2026-05-07 18:26 60.19617 11.09375 683 ft 2 kts 196°
2026-05-07 18:27 60.19617 11.09376 682 ft 0 kts 196°
2026-05-07 18:32 60.19615 11.09368 683 ft 1 kts 228°
2026-05-07 18:32 60.19625 11.09358 679 ft 4 kts 357°
2026-05-07 18:32 60.19676 11.09376 683 ft 11 kts 355°
2026-05-07 18:32 60.19704 11.09275 683 ft 10 kts 283°
2026-05-07 18:33 60.19723 11.09116 681 ft 13 kts 284°
2026-05-07 18:33 60.19750 11.08926 681 ft 16 kts 287°
2026-05-07 18:33 60.19785 11.08716 675 ft 11 kts 306°
2026-05-07 18:33 60.19857 11.08719 679 ft 12 kts 16°
2026-05-07 18:34 60.19955 11.08776 680 ft 16 kts 16°
2026-05-07 18:34 60.20060 11.08838 680 ft 16 kts 16°
2026-05-07 18:34 60.20170 11.08900 681 ft 17 kts 16°
2026-05-07 18:34 60.20283 11.08966 681 ft 17 kts 16°
2026-05-07 18:35 60.20400 11.09034 682 ft 18 kts 16°
2026-05-07 18:35 60.20521 11.09104 682 ft 18 kts 16°
2026-05-07 18:35 60.20597 11.09146 682 ft 10 kts
2026-05-07 18:35 60.20654 11.09039 681 ft 15 kts 281°
2026-05-07 18:36 60.20683 11.08819 679 ft 18 kts 288°
2026-05-07 18:36 60.20706 11.08656 678 ft 3 kts 257°
2026-05-07 18:36 60.20686 11.08636 679 ft 0 kts 194°
2026-05-07 18:37 60.20628 11.08605 679 ft 36 kts 195°
2026-05-07 18:37 60.20141 11.08320 675 ft 108 kts 196°
2026-05-07 18:37 60.19238 11.07793 674 ft 164 kts 198°
2026-05-07 18:37 60.18094 11.07085 1187 ft 171 kts 196°
2026-05-07 18:38 60.16978 11.06225 1889 ft 174 kts 212°
2026-05-07 18:38 60.16106 11.04415 2178 ft 194 kts 239°
2026-05-07 18:38 60.15608 11.01710 2347 ft 222 kts 250°
2026-05-07 18:38 60.15008 10.98673 2651 ft 245 kts 245°
2026-05-07 18:39 60.14282 10.95457 3180 ft 259 kts 248°
2026-05-07 18:39 60.13955 10.91913 3989 ft 261 kts 270°
2026-05-07 18:39 60.14001 10.88275 4839 ft 262 kts 271°
2026-05-07 18:39 60.14046 10.84589 5615 ft 266 kts 271°
2026-05-07 18:40 60.14081 10.80869 6443 ft 268 kts 271°
2026-05-07 18:40 60.14112 10.77124 7232 ft 269 kts 271°
2026-05-07 18:40 60.14142 10.73350 8006 ft 271 kts 271°
2026-05-07 18:40 60.14173 10.69559 8837 ft 272 kts 271°
2026-05-07 18:41 60.14203 10.65765 9686 ft 272 kts 271°
2026-05-07 18:41 60.14275 10.61950 10397 ft 278 kts 273°
2026-05-07 18:41 60.14401 10.57923 10587 ft 301 kts 274°
2026-05-07 18:41 60.14559 10.53546 10594 ft 327 kts 274°
2026-05-07 18:42 60.14731 10.48920 10584 ft 336 kts 274°
2026-05-07 18:42 60.14899 10.44229 10582 ft 338 kts 274°
2026-05-07 18:42 60.15060 10.39525 10578 ft 338 kts 274°
2026-05-07 18:42 60.15214 10.34822 10576 ft 338 kts 274°
2026-05-07 18:43 60.15364 10.30115 10576 ft 338 kts 273°
2026-05-07 18:43 60.15513 10.25409 10577 ft 338 kts 273°
2026-05-07 18:43 60.15658 10.20703 10576 ft 338 kts 273°
2026-05-07 18:43 60.15800 10.15992 10573 ft 338 kts 273°
2026-05-07 18:44 60.15943 10.11274 10685 ft 342 kts 273°
2026-05-07 18:44 60.16087 10.06499 11433 ft 343 kts 273°
2026-05-07 18:44 60.16228 10.01718 12222 ft 343 kts 273°
2026-05-07 18:44 60.16365 9.96934 13006 ft 344 kts 273°
2026-05-07 18:45 60.16501 9.92132 13736 ft 346 kts 273°
2026-05-07 18:45 60.16635 9.87359 14370 ft 348 kts 273°
2026-05-07 18:45 60.16772 9.82436 15007 ft 350 kts 273°
2026-05-07 18:45 60.16906 9.77604 15632 ft 353 kts 273°
2026-05-07 18:46 60.17043 9.72654 16257 ft 356 kts 273°
2026-05-07 18:46 60.17178 9.67686 16881 ft 358 kts 273°
2026-05-07 18:46 60.17311 9.62672 17511 ft 361 kts 272°
2026-05-07 18:46 60.17443 9.57619 18127 ft 364 kts 272°
2026-05-07 18:47 60.17574 9.52527 18682 ft 367 kts 272°
2026-05-07 18:47 60.17705 9.47384 19240 ft 369 kts 272°
2026-05-07 18:47 60.17834 9.42242 19803 ft 370 kts 273°
2026-05-07 18:47 60.17960 9.37066 20368 ft 372 kts 273°
2026-05-07 18:48 60.18084 9.31874 20910 ft 373 kts 272°
2026-05-07 18:48 60.18206 9.26667 21443 ft 374 kts 273°
2026-05-07 18:48 60.18330 9.21440 21966 ft 375 kts 273°
2026-05-07 18:48 60.18453 9.16190 22484 ft 377 kts 273°
2026-05-07 18:49 60.18573 9.10917 22993 ft 379 kts 273°
2026-05-07 18:49 60.18690 9.05623 23488 ft 380 kts 273°
2026-05-07 18:49 60.18804 9.00299 23926 ft 382 kts 273°
2026-05-07 18:49 60.18919 8.94955 24305 ft 383 kts 273°
2026-05-07 18:50 60.19033 8.89590 24705 ft 385 kts 273°
2026-05-07 18:50 60.19142 8.84204 25099 ft 386 kts 273°
2026-05-07 18:50 60.19248 8.78801 25495 ft 388 kts 273°
2026-05-07 18:50 60.19354 8.73373 25874 ft 389 kts 273°
2026-05-07 18:51 60.19462 8.67923 26262 ft 391 kts 272°
2026-05-07 18:51 60.19569 8.62453 26636 ft 392 kts 272°
2026-05-07 18:51 60.19673 8.56962 27009 ft 394 kts 272°
2026-05-07 18:51 60.19775 8.51450 27384 ft 395 kts 272°
2026-05-07 18:52 60.19872 8.45915 27744 ft 397 kts 272°
2026-05-07 18:52 60.19965 8.40368 28074 ft 399 kts 272°
2026-05-07 18:52 60.20061 8.34823 28147 ft 392 kts 273°
2026-05-07 18:53 60.20359 8.23999 28154 ft 388 kts 274°
2026-05-07 18:53 60.20716 8.13215 28088 ft 390 kts 274°
2026-05-07 18:53 60.20887 8.07789 27752 ft 386 kts 274°
2026-05-07 18:54 60.21047 8.02440 27262 ft 381 kts 274°
2026-05-07 18:54 60.21198 7.97160 26739 ft 376 kts 273°
2026-05-07 18:54 60.21342 7.91943 26233 ft 371 kts 273°
2026-05-07 18:54 60.21481 7.86798 25755 ft 367 kts 273°
2026-05-07 18:55 60.21615 7.81694 25261 ft 363 kts 273°
2026-05-07 18:55 60.21747 7.76663 24779 ft 359 kts 273°
2026-05-07 18:55 60.21878 7.71662 24300 ft 357 kts 273°
2026-05-07 18:55 60.22006 7.66699 23827 ft 354 kts 273°
2026-05-07 18:56 60.22131 7.61754 23291 ft 353 kts 273°
2026-05-07 18:56 60.22254 7.56757 22826 ft 364 kts 273°
2026-05-07 18:56 60.22380 7.51656 22344 ft 367 kts 272°
2026-05-07 18:56 60.22505 7.46533 21847 ft 366 kts 272°
2026-05-07 18:57 60.22627 7.41425 21388 ft 365 kts 272°
2026-05-07 18:57 60.22747 7.36338 20932 ft 363 kts 272°
2026-05-07 18:57 60.22863 7.31271 20474 ft 362 kts 272°
2026-05-07 18:57 60.22980 7.26222 20036 ft 361 kts 272°
2026-05-07 18:58 60.23095 7.21193 19581 ft 359 kts 271°
2026-05-07 18:58 60.23205 7.16183 19148 ft 358 kts 271°
2026-05-07 18:58 60.23310 7.11190 18723 ft 357 kts 271°
2026-05-07 18:58 60.23415 7.06214 18268 ft 355 kts 271°
2026-05-07 18:59 60.23519 7.01259 17817 ft 354 kts 271°
2026-05-07 18:59 60.23620 6.96325 17346 ft 352 kts 271°
2026-05-07 18:59 60.23719 6.91427 16914 ft 350 kts 271°
2026-05-07 18:59 60.23816 6.86534 16460 ft 348 kts 271°
2026-05-07 19:00 60.23909 6.81683 16132 ft 346 kts 271°
2026-05-07 19:00 60.23998 6.76844 16098 ft 346 kts 271°
2026-05-07 19:00 60.24085 6.71992 16100 ft 347 kts 271°
2026-05-07 19:00 60.24171 6.67146 16101 ft 347 kts 270°
2026-05-07 19:01 60.24245 6.62275 16093 ft 348 kts 269°
2026-05-07 19:01 60.24214 6.57395 16089 ft 350 kts 267°
2026-05-07 19:01 60.24144 6.54143 16092 ft 350 kts 266°
2026-05-07 19:01 60.23999 6.49255 16088 ft 351 kts 265°
2026-05-07 19:02 60.23781 6.42761 16086 ft 351 kts 265°
2026-05-07 19:02 60.23624 6.37865 16079 ft 351 kts 265°
2026-05-07 19:02 60.23477 6.32971 15128 ft 350 kts 266°
2026-05-07 19:02 60.23341 6.28087 14198 ft 345 kts 266°
2026-05-07 19:03 60.23257 6.24900 14089 ft 329 kts 266°
2026-05-07 19:03 60.23140 6.20468 13964 ft 307 kts 266°
2026-05-07 19:03 60.23028 6.16325 13764 ft 288 kts 265°
2026-05-07 19:03 60.22929 6.12353 13256 ft 281 kts 266°
2026-05-07 19:04 60.22848 6.08436 12684 ft 280 kts 266°
2026-05-07 19:04 60.22775 6.04527 12296 ft 279 kts 266°
2026-05-07 19:04 60.22706 6.00640 11903 ft 277 kts 265°
2026-05-07 19:04 60.22635 5.96770 11499 ft 277 kts 265°
2026-05-07 19:05 60.22563 5.92966 11112 ft 275 kts 265°
2026-05-07 19:05 60.22490 5.89136 10851 ft 270 kts 265°
2026-05-07 19:05 60.22420 5.85430 10723 ft 260 kts 265°
2026-05-07 19:05 60.22351 5.81858 10593 ft 251 kts 264°
2026-05-07 19:06 60.22281 5.78388 10332 ft 245 kts 264°
2026-05-07 19:06 60.22130 5.71457 9001 ft 249 kts 264°
2026-05-07 19:06 60.22053 5.67964 8237 ft 250 kts 264°
2026-05-07 19:07 60.21975 5.64488 7570 ft 248 kts 264°
2026-05-07 19:07 60.21896 5.61038 6972 ft 244 kts 264°
2026-05-07 19:07 60.21821 5.57680 6350 ft 235 kts 264°
2026-05-07 19:07 60.21751 5.54461 5696 ft 225 kts 264°
2026-05-07 19:08 60.21683 5.51409 5076 ft 213 kts 265°
2026-05-07 19:08 60.21554 5.48460 4413 ft 211 kts 256°
2026-05-07 19:08 60.21073 5.45818 4116 ft 189 kts 240°
2026-05-07 19:08 60.20473 5.43619 3874 ft 172 kts 240°
2026-05-07 19:09 60.19906 5.41525 3643 ft 169 kts 240°
2026-05-07 19:09 60.19359 5.39503 3426 ft 159 kts 240°
2026-05-07 19:09 60.18840 5.37585 3206 ft 154 kts 240°
2026-05-07 19:09 60.18358 5.35675 2985 ft 153 kts 248°
2026-05-07 19:10 60.18106 5.33604 2790 ft 153 kts 261°
2026-05-07 19:10 60.18122 5.31466 2575 ft 154 kts 276°
2026-05-07 19:10 60.18402 5.29390 2354 ft 155 kts 289°
2026-05-07 19:10 60.18886 5.27478 2065 ft 153 kts 303°
2026-05-07 19:11 60.19589 5.25889 1948 ft 153 kts 318°
2026-05-07 19:11 60.20506 5.24837 1787 ft 152 kts 340°
2026-05-07 19:11 60.21534 5.24334 1568 ft 152 kts 352°
2026-05-07 19:11 60.22560 5.24069 1360 ft 150 kts 352°
2026-05-07 19:12 60.23589 5.23755 1118 ft 150 kts 350°
2026-05-07 19:12 60.24604 5.23402 939 ft 147 kts 349°
2026-05-07 19:12 60.25605 5.23074 751 ft 145 kts 349°
2026-05-07 19:12 60.26593 5.22739 527 ft 143 kts 348°
2026-05-07 19:13 60.27572 5.22406 319 ft 142 kts 350°
2026-05-07 19:13 60.28546 5.22086 175 ft 141 kts 349°
2026-05-07 19:13 60.29316 5.21823 155 ft 73 kts 351°
2026-05-07 19:13 60.29615 5.21723 148 ft 28 kts 350°
2026-05-07 19:14 60.29708 5.21786 149 ft 12 kts 72°
2026-05-07 19:14 60.29718 5.21939 148 ft 10 kts 83°
2026-05-07 19:14 60.29691 5.22017 148 ft 5 kts 156°
2026-05-07 19:14 60.29673 5.22029 148 ft 1 kts 162°
2026-05-07 19:15 60.29618 5.22046 149 ft 15 kts 171°
2026-05-07 19:15 60.29516 5.22078 154 ft 13 kts 171°
2026-05-07 19:15 60.29428 5.22105 157 ft 13 kts 171°
2026-05-07 19:15 60.29330 5.22139 161 ft 15 kts 170°
2026-05-07 19:16 60.29214 5.22179 163 ft 19 kts 170°
2026-05-07 19:16 60.29066 5.22228 162 ft 24 kts 171°
2026-05-07 19:16 60.28899 5.22280 162 ft 24 kts 171°
2026-05-07 19:16 60.28762 5.22324 162 ft 20 kts 171°
2026-05-07 19:17 60.28690 5.22381 164 ft 8 kts 123°
2026-05-07 19:17 60.28712 5.22469 166 ft 8 kts 36°
2026-05-07 19:17 60.28759 5.22528 168 ft 7 kts 32°